Location: Castle Hill Houses
(40.8186°N, 73.8497°W)
Time: 02:45:33
(UTC+00:00)

USA 215 - Pass Details

Date: 26 January 2020
Orbit: 1101 x 1107 km, 123.0° (Epoch: 06 February)

Event Time Altitude Azimuth Distance (km) Brightness Sun altitude
Rises 10:26:35 0° 117° (ESE) 3,915 7.5 -19.8°
Reaches altitude 10° 10:29:05 10° 113° (ESE) 2,958 6.7 -19.3°
Maximum altitude 10:35:29 60° 36° (NE) 1,247 3.6 -18.1°
Enters shadow 10:40:52 15° 320° (NW) 2,582 4.8 -17.1°
